This is the latest recevied weather packets stored in our database for station/object LROP. If no packets are shown the sender has not sent any weather packets the latest 10 day(s).
| Time | Temp. | Humidity | Pressure | Rain* | Wind** | Luminosity | Snow |
|---|---|---|---|---|---|---|---|
| 1777031309 | 22.22° C | 33% | 1010 hPa | - | - | - | - |
| 1777030382 | 22.22° C | 33% | 1010 hPa | - | - | - | - |
| 1777029483 | 21.11° C | 33% | 1010 hPa | - | - | - | - |
| 1777028582 | 21.11° C | 33% | 1010 hPa | - | - | - | - |
| 1777027682 | 20° C | 30% | 1011 hPa | - | - | - | - |
| 1777026783 | 20° C | 30% | 1011 hPa | - | - | - | - |
| 1777025882 | 20° C | 28% | 1011 hPa | - | - | - | - |
| 1777024983 | 20° C | 28% | 1011 hPa | - | - | - | - |
| 1777024083 | 17.78° C | 30% | 1011 hPa | - | - | - | - |
| 1777023182 | 17.78° C | 30% | 1011 hPa | - | - | - | - |
| 1777022281 | 18.89° C | 37% | 1011 hPa | - | - | - | - |
| 1777021382 | 18.89° C | 37% | 1011 hPa | - | - | - | - |
| 1777020485 | 17.22° C | 37% | 1012 hPa | - | - | - | - |
| 1777019582 | 17.22° C | 37% | 1012 hPa | - | - | - | - |
| 1777018682 | 17.22° C | 37% | 1012 hPa | - | - | - | - |
| 1777017782 | 17.22° C | 37% | 1012 hPa | - | - | - | - |
| 1777016882 | 17.22° C | 39% | 1012 hPa | - | - | - | - |
| 1777015982 | 17.22° C | 39% | 1012 hPa | - | - | - | - |
| 1777015095 | 16.11° C | 48% | 1012 hPa | - | - | - | - |
| 1777014191 | 15° C | 51% | 1011 hPa | - | - | - | - |
| 1777013282 | 15° C | 51% | 1011 hPa | - | - | - | - |
| 1777012382 | 15° C | 51% | 1011 hPa | - | - | - | - |
| 1777011482 | 12.78° C | 55% | 1011 hPa | - | - | - | - |
| 1777010582 | 12.78° C | 55% | 1011 hPa | - | - | - | - |
| 1777009682 | 11.11° C | 67% | 1011 hPa | - | - | - | - |
* Rain since midnight (hover to see other rain measurements)
** Current wind speed in m/s (hover to see current wind gust speed)